Location: Easthampton
(42.2676°N, 72.6690°W)
Time: 04:05:22
(UTC+00:00)

RS-44 - Pass Details

Date: 26 April 2024
Orbit: 1174 x 1511 km, 82.5° (Epoch: 27 May)

Event Time Altitude Azimuth Distance (km) Brightness Sun altitude
Rises 09:05:09 0° 4° (N) 4,264 ? -8.8°
Reaches altitude 10° 09:09:53 10° 30° (NNE) 3,221 ? -8.0°
Maximum altitude 09:13:21 14° 58° (ENE) 2,908 ? -7.5°
Drops below altitude 10° 09:16:44 10° 86° (E) 3,136 ? -6.9°
Sets 09:21:11 0° 112° (ESE) 4,063 ? -6.2°
